Starlink 32842

operational
NORAD ID: 62822 Int'l Des: 2025-018 Owner: SPXS Country: US Constellation: starlink
LEOCIRCULAR

Über Starlink 32842

Beschreibung wird geladen...

Live-Position

3D-Globus wird geladen...

Nächste Überflüge

Höhenverlauf

Altitude vs Time

uPlot chart will show altitude changes over time

Zweizeiliger Elementsatz

1 62822U 25018S 25257.69604665 .00035687 00000-0 12109-2 0 9993
2 62822 53.1607 47.0201 0001680 70.5872 289.5311 15.30208455 36238
Epoch: 14. Sept. 2025 • Age: 21 hours

Aktueller Status

Höhe 482.9 km
Geschwindigkeit 7.62 km/s
Subsatellitenpunkt -24.33°S, 37.8°E
Startdatum 24. Jan. 2025
Alter 0.6 years
Typ internet

Technische Details

Klassifizierung Payload
Masse 730.00 kg
Trockenmasse 700.00 kg
Gesamtmasse 730.00 kg
Länge 0.30 m
Durchmesser 4.10 m
Spannweite 29.00 m
Form Box + pan
Hersteller SPXS
Bus-Typ Starlink V2M
Phasenstatus In Orbit
Besitzer/Staat SPXS/US

Große Konstellationen

Loading constellations...